Total_Precipitation_Accumulation
1.50 1.53 2.33 3.65 4.29 3.63 3.03 2.30 1.50 1.49 1.29 0.87 0.70 0.80 1.28 1.93 2.38 2.85 2.95 2.50 1.72 1.49 1.66 2.45 3.35 3.25 3.04 3.14 3.28 3.30 3.24 3.16 3.07 2.89 2.68 2.58 2.35 2.27 2.30 2.32 2.34 2.23 2.19 2.17 2.36 2.67 2.97 3.13 2.94
1.37 2.17 3.21 4.35 4.01 3.23 3.06 2.25 1.68 1.27 0.84 0.60 0.57 0.65 0.94 1.09 1.07 1.76 3.01 2.78 1.66 1.38 1.49 1.87 3.13 3.22 3.09 3.19 3.25 3.10 2.95 2.80 2.62 2.55 2.52 2.45 2.34 2.19 2.20 2.30 2.39 2.23 2.22 2.22 2.30 2.56 2.72 2.88 2.86
1.73 2.72 3.75 3.94 3.02 2.86 2.89 2.08 1.50 0.80 0.52 0.56 0.64 0.63 0.86 1.20 1.32 2.02 2.72 2.11 1.46 1.29 1.44 2.00 3.00 3.08 3.04 2.97 2.97 3.02 2.83 2.64 2.40 2.23 2.28 2.22 2.20 2.12 2.20 2.28 2.18 2.12 2.21 2.08 2.10 2.33 2.52 2.75 2.74
2.08 2.95 3.26 2.90 2.46 1.98 1.69 1.58 1.07 0.84 0.65 0.42 0.53 0.71 0.72 1.12 1.45 1.81 1.83 1.51 1.33 1.32 1.42 1.97 2.70 2.85 2.88 2.81 2.75 2.69 2.55 2.38 2.29 2.13 2.17 2.20 2.19 2.13 2.12 2.03 2.01 2.09 2.15 2.06 1.97 2.08 2.39 2.73 2.67
2.42 3.00 2.89 2.34 2.26 1.73 1.31 1.16 0.90 0.99 0.90 0.57 0.49 0.76 0.99 1.34 1.46 1.56 1.53 1.37 1.38 1.43 1.40 1.79 2.46 2.60 2.68 2.63 2.47 2.41 2.39 2.25 2.18 2.08 1.97 2.00 2.08 2.12 2.09 2.10 2.11 2.09 2.10 2.10 2.06 2.13 2.23 2.47 2.56
2.61 2.69 2.61 2.36 2.38 1.98 1.63 1.20 0.94 0.99 0.82 0.57 0.54 0.82 1.20 1.52 1.64 1.57 1.43 1.48 1.47 1.49 1.43 1.57 2.16 2.42 2.47 2.43 2.37 2.33 2.25 2.16 2.04 1.88 1.82 1.89 2.00 2.02 1.93 1.90 1.96 1.94 1.92 1.97 1.96 2.02 2.02 2.08 2.28
2.86 2.71 2.32 1.97 2.25 2.51 1.92 1.20 1.07 1.08 0.98 0.74 0.55 0.93 1.29 1.56 1.61 1.38 1.33 1.60 1.75 1.75 1.61 1.48 1.61 1.86 2.09 2.33 2.37 2.42 2.39 2.33 2.15 1.92 1.83 1.92 2.00 1.90 1.78 1.86 1.95 1.96 1.97 2.06 2.07 2.10 2.08 2.11 2.32
2.28 2.37 1.97 1.99 2.32 2.60 1.82 1.20 0.97 0.95 0.97 0.63 0.60 1.02 1.44 1.44 1.43 1.38 1.31 1.49 1.58 1.64 1.59 1.48 1.50 1.60 1.71 1.95 2.28 2.58 2.67 2.73 2.41 2.03 1.91 1.83 1.75 1.72 1.79 1.84 1.95 2.10 2.22 2.38 2.42 2.31 2.17 2.18 2.29
2.17 2.56 2.40 2.45 2.43 2.04 1.36 1.27 0.97 0.76 0.80 0.75 0.63 0.70 0.92 0.89 0.98 1.21 1.30 1.34 1.28 1.24 1.27 1.33 1.43 1.56 1.62 1.72 1.88 2.37 2.62 2.72 2.32 1.86 1.85 1.70 1.53 1.49 1.66 1.74 2.20 2.33 2.43 2.67 2.77 2.58 2.31 2.10 2.03
2.28 2.46 2.22 1.83 1.59 1.44 1.27 1.16 0.92 0.98 1.14 1.04 0.87 0.78 0.79 0.86 1.00 1.10 1.12 1.14 1.09 1.05 0.99 0.99 1.00 1.12 1.33 1.44 1.78 2.18 2.23 2.31 1.94 1.69 1.68 1.63 1.71 1.65 1.40 1.59 2.13 2.39 2.47 2.34 2.35 2.41 2.11 1.73 1.49
1.75 1.88 1.47 1.19 0.94 0.95 1.01 0.93 0.75 0.94 1.22 0.96 0.84 0.84 0.87 0.91 0.94 1.00 1.00 0.91 0.85 0.77 0.78 0.78 0.85 0.88 1.06 1.43 1.77 2.06 2.20 2.26 2.21 2.11 1.84 1.81 1.71 1.52 1.39 1.45 1.55 1.69 1.78 1.68 1.71 1.77 1.60 1.52 1.39
1.58 1.39 1.14 1.07 0.83 0.87 0.85 0.80 0.85 0.81 0.82 0.65 0.62 0.68 0.86 0.98 0.94 0.88 0.93 0.89 0.79 0.78 0.81 0.74 0.69 0.77 0.96 1.15 1.41 1.80 2.04 2.09 2.06 1.95 1.60 1.62 1.66 1.53 1.49 1.61 1.72 1.71 1.75 1.88 1.82 1.81 1.70 1.53 1.32
1.52 1.30 1.03 0.83 0.78 0.78 0.81 0.83 0.84 0.74 0.62 0.58 0.58 0.69 0.88 1.00 0.99 0.88 0.82 0.80 0.82 0.92 1.01 0.94 0.78 0.78 0.90 1.06 1.14 1.35 1.60 1.68 1.95 1.95 1.50 1.34 1.40 1.51 1.53 1.44 1.65 1.77 1.84 1.91 1.92 1.84 1.71 1.66 1.48
1.34 1.11 0.95 0.85 0.84 0.80 0.89 0.87 0.83 0.90 0.67 0.62 0.67 0.80 0.91 1.00 0.99 0.87 0.79 0.74 0.71 0.79 0.90 0.95 0.96 0.98 0.97 1.00 1.03 1.13 1.17 1.29 1.42 1.42 1.23 1.16 1.19 1.33 1.54 1.44 1.45 1.59 1.80 1.94 1.92 1.85 1.91 1.87 1.66
0.94 1.03 1.14 1.05 0.97 0.93 1.04 1.25 0.97 0.81 0.69 0.67 0.70 0.82 0.82 0.84 0.83 0.75 0.71 0.65 0.62 0.66 0.75 0.85 0.92 0.99 1.04 1.14 1.17 1.11 1.11 1.22 1.23 1.17 1.16 1.19 1.15 1.26 1.51 1.43 1.34 1.37 1.54 1.72 1.96 2.03 2.05 1.85 1.76
1.14 1.24 1.61 1.24 1.11 1.05 1.25 1.45 0.90 0.75 0.74 0.74 0.73 0.86 0.85 0.71 0.65 0.62 0.64 0.64 0.64 0.69 0.70 0.76 0.72 0.84 0.98 1.16 1.25 1.26 1.23 1.28 1.23 1.08 1.04 1.03 1.03 1.06 1.30 1.39 1.31 1.31 1.51 1.77 2.05 2.25 2.31 2.10 2.06
1.53 1.49 1.43 1.30 1.10 0.98 0.99 1.07 0.80 0.67 0.64 0.70 0.74 0.82 0.83 0.67 0.60 0.55 0.54 0.61 0.70 0.75 0.71 0.73 0.76 0.79 0.83 0.98 1.13 1.15 1.15 1.22 1.19 1.11 1.08 1.00 0.96 0.99 1.23 1.48 1.51 1.49 1.68 1.83 1.83 2.11 2.28 2.37 2.28
1.17 1.04 1.06 1.06 0.96 0.89 0.85 0.80 0.71 0.61 0.58 0.67 0.73 0.78 0.76 0.58 0.51 0.50 0.54 0.65 0.79 0.87 0.86 0.89 0.83 0.78 0.78 0.82 0.94 1.06 1.04 1.07 1.15 1.10 1.13 1.16 1.19 1.21 1.43 1.69 1.71 1.78 1.88 2.00 2.22 2.51 2.52 2.44 2.48
0.88 0.85 0.88 0.79 0.68 0.76 0.80 0.82 0.75 0.71 0.65 0.67 0.70 0.68 0.70 0.61 0.54 0.48 0.51 0.58 0.72 0.79 0.78 0.83 0.88 0.81 0.76 0.71 0.79 0.91 0.96 1.06 1.17 1.27 1.36 1.36 1.33 1.40 1.63 1.83 2.05 2.17 2.08 2.12 2.41 2.72 2.82 2.59 2.43
0.91 0.94 0.92 0.86 0.72 0.76 0.80 0.82 0.73 0.68 0.66 0.58 0.59 0.61 0.66 0.58 0.50 0.45 0.48 0.53 0.56 0.63 0.65 0.72 0.78 0.76 0.70 0.66 0.71 0.84 0.98 1.09 1.25 1.45 1.69 1.61 1.47 1.49 1.52 1.81 1.99 2.07 2.21 2.26 2.36 2.70 3.04 2.77 2.48
0.82 0.78 0.73 0.86 0.83 0.87 0.97 1.03 0.82 0.71 0.66 0.57 0.54 0.62 0.70 0.65 0.52 0.44 0.45 0.52 0.50 0.53 0.61 0.66 0.71 0.73 0.75 0.84 1.01 1.29 1.58 1.73 1.79 1.83 2.07 2.09 1.91 1.84 1.80 1.85 2.00 2.08 2.28 2.45 2.47 2.55 2.92 2.96 2.68
0.88 0.63 0.56 0.74 1.02 1.06 0.96 1.15 0.81 0.69 0.73 0.61 0.57 0.56 0.61 0.62 0.61 0.54 0.49 0.52 0.46 0.51 0.61 0.69 0.71 0.81 0.83 0.99 1.33 1.76 2.11 2.30 2.26 2.30 2.37 2.46 2.34 2.16 2.16 2.18 2.30 2.23 2.23 2.34 2.31 2.30 2.58 2.94 2.97
0.83 0.68 0.71 0.81 0.96 0.93 0.73 0.84 0.73 0.69 0.76 0.65 0.61 0.58 0.58 0.53 0.54 0.57 0.56 0.56 0.55 0.57 0.65 0.77 0.87 1.04 1.23 1.36 1.56 1.87 2.02 2.09 2.23 2.41 2.65 2.83 2.86 2.80 2.76 2.67 2.51 2.30 2.25 2.32 2.37 2.38 2.50 2.63 2.81
0.67 0.83 0.98 1.00 1.04 1.01 0.57 0.58 0.64 0.60 0.58 0.62 0.64 0.66 0.62 0.56 0.51 0.53 0.61 0.65 0.63 0.74 0.83 0.90 1.09 1.24 1.29 1.44 1.58 1.70 1.78 1.88 2.10 2.28 2.53 2.71 2.76 2.82 2.75 2.56 2.27 2.10 2.06 2.15 2.32 2.35 2.43 2.45 2.54
0.68 1.00 1.39 1.49 1.38 0.97 0.45 0.48 0.54 0.42 0.37 0.42 0.47 0.48 0.48 0.52 0.54 0.58 0.61 0.68 0.70 0.78 0.94 1.05 1.17 1.31 1.34 1.44 1.52 1.56 1.67 1.80 1.94 2.01 2.06 2.11 2.10 2.17 2.18 2.16 2.12 2.02 1.92 1.99 2.22 2.33 2.39 2.40 2.38
0.58 0.73 1.16 1.38 1.13 0.79 0.50 0.59 0.53 0.34 0.28 0.25 0.29 0.34 0.41 0.54 0.60 0.63 0.64 0.75 0.83 0.91 1.02 1.18 1.29 1.36 1.40 1.49 1.58 1.54 1.66 1.81 1.88 1.81 1.76 1.85 1.88 1.95 1.97 1.98 2.01 1.97 1.91 1.92 2.04 2.18 2.28 2.29 2.23
0.57 0.59 0.66 0.85 0.69 0.69 0.57 0.51 0.42 0.26 0.23 0.22 0.28 0.40 0.51 0.59 0.65 0.70 0.74 0.83 0.91 0.99 1.09 1.21 1.39 1.47 1.52 1.53 1.61 1.71 1.78 1.79 1.77 1.64 1.58 1.65 1.60 1.57 1.68 1.79 1.87 1.82 1.79 1.80 1.95 2.09 2.10 2.17 2.26
0.45 0.58 0.75 0.90 0.95 0.85 0.59 0.53 0.50 0.36 0.31 0.32 0.37 0.47 0.62 0.73 0.77 0.82 0.90 0.98 1.04 1.06 1.18 1.28 1.43 1.57 1.56 1.52 1.67 1.86 1.84 1.62 1.48 1.34 1.32 1.35 1.39 1.43 1.46 1.44 1.49 1.50 1.53 1.52 1.61 1.78 1.86 1.87 1.97
0.47 0.51 0.68 0.81 0.76 0.96 1.03 0.96 0.78 0.74 0.60 0.62 0.65 0.74 0.91 0.98 1.00 0.98 1.04 1.12 1.12 1.14 1.24 1.29 1.42 1.60 1.63 1.52 1.64 1.68 1.49 1.25 1.14 1.13 1.11 1.10 1.10 1.14 1.16 1.09 1.12 1.24 1.29 1.22 1.29 1.39 1.45 1.55 1.64
0.40 0.40 0.50 0.80 0.77 0.77 1.10 1.09 0.90 0.95 0.94 1.04 1.11 1.25 1.20 1.18 1.21 1.11 1.08 1.10 1.05 1.06 1.16 1.25 1.41 1.51 1.44 1.39 1.36 1.20 1.04 0.95 0.90 0.88 0.85 0.84 0.88 0.89 0.89 0.85 0.85 0.97 1.12 1.17 1.24 1.29 1.27 1.34 1.47